EST,Max TemperatureF,Mean TemperatureF,Min TemperatureF,Max Dew PointF,MeanDew PointF,Min DewpointF,Max Humidity, Mean Humidity, Min Humidity, Max Sea Level PressureIn, Mean Sea Level PressureIn, Min Sea Level PressureIn, Max VisibilityMiles, Mean VisibilityMiles, Min VisibilityMiles, Max Wind SpeedMPH, Mean Wind SpeedMPH, Max Gust SpeedMPH,PrecipitationIn, CloudCover, Events, WindDirDegrees
2012-12-1,41,36,32,36,33,27,89,83,76,30.42,30.37,30.32,10,9,7,16,10,23,0.00,7,,151
2012-12-2,48,44,39,47,40,35,93,87,79,30.31,30.13,30.02,10,8,4,17,12,24,0.09,6,Rain,170
2012-12-3,54,48,41,48,43,39,100,84,64,30.27,30.19,30.08,10,8,5,13,5,,0.00,6,,116
2012-12-4,68,57,45,53,49,45,100,83,54,30.16,30.04,29.90,10,8,3,29,10,34,0.18,5,Rain,201
2012-12-5,44,36,26,45,28,15,100,77,63,30.36,30.16,29.98,10,9,1,23,12,28,0.10,7,Rain-Snow,306
2012-12-6,36,28,21,20,17,15,85,62,50,30.42,30.31,30.15,10,10,10,14,7,21,0.00,2,,99
2012-12-7,36,34,31,35,28,19,97,82,59,30.13,30.06,29.99,10,9,3,16,11,24,0.27,6,Rain,154
2012-12-8,48,42,35,46,39,34,100,94,86,30.13,29.92,29.82,10,8,2,15,5,,0.13,8,Rain,140
2012-12-9,39,35,32,38,30,28,100,81,65,30.30,30.16,29.90,10,10,10,18,9,23,0.00,8,Rain,81
2012-12-10,50,42,34,48,41,33,100,94,86,29.87,29.67,29.53,10,8,4,20,12,24,0.38,8,Rain,193
2012-12-11,35,30,24,32,28,23,100,91,79,30.22,29.96,29.73,10,9,3,12,7,,0.00,7,Rain-Snow,322
2012-12-12,39,32,25,25,22,19,91,75,49,30.45,30.36,30.22,10,10,10,13,4,,0.00,5,,216
2012-12-13,41,32,22,25,23,20,96,75,52,30.49,30.39,30.28,10,10,10,9,3,,0.00,2,,155
2012-12-14,42,34,26,30,24,18,79,67,45,30.28,30.23,30.17,10,10,10,10,7,,0.00,3,,251
2012-12-15,41,33,25,30,27,24,96,78,65,30.33,30.23,30.09,10,9,4,14,4,,0.00,3,,130
2012-12-16,45,41,37,38,36,29,93,82,68,30.06,29.91,29.82,10,10,7,23,16,30,0.03,8,Rain,153
2012-12-17,43,40,38,41,39,37,100,95,89,29.82,29.76,29.61,10,8,2,15,10,20,0.68,7,Rain,132
2012-12-18,44,40,36,41,36,30,97,90,75,29.71,29.56,29.45,10,9,3,17,7,25,0.32,8,Rain,248
2012-12-19,36,34,27,31,28,22,89,77,63,30.21,29.92,29.69,10,10,10,20,13,25,0.00,7,,307
2012-12-20,36,28,21,34,24,19,100,80,55,30.23,29.97,29.55,10,9,4,22,7,30,0.07,4,Rain-Snow,121
2012-12-21,39,34,30,37,32,29,100,94,86,29.46,29.27,29.18,10,6,0,21,9,34,0.58,8,Fog-Rain-Snow,269
2012-12-22,30,27,24,30,23,19,100,83,69,29.92,29.55,29.26,10,6,1,37,22,45,0.00,8,Snow,296
2012-12-23,34,31,28,25,22,16,86,71,48,29.98,29.89,29.81,10,10,10,18,11,,0.00,7,Snow,264
2012-12-24,32,29,26,25,21,17,93,78,57,30.09,29.95,29.86,10,6,1,20,9,25,0.02,6,Snow,131
2012-12-25,29,26,19,27,22,15,100,87,75,30.35,30.10,29.87,10,8,2,15,5,21,0.04,7,Snow,6
2012-12-26,27,20,14,23,17,12,92,83,66,30.37,30.08,29.69,10,7,0,16,4,21,0.27,6,Fog-Snow,76
2012-12-27,26,22,19,25,20,17,96,91,80,30.00,29.75,29.61,10,3,1,23,11,31,0.06,8,Rain-Snow,326
2012-12-28,24,22,21,22,20,19,93,89,81,30.15,30.08,29.96,10,9,3,18,11,,0.00,8,Rain-Snow,323
2012-12-29,26,24,21,25,21,19,100,90,86,30.04,29.78,29.60,10,4,0,18,6,23,0.19,8,Fog-Snow,65
2012-12-30,24,22,19,20,17,13,93,83,65,30.24,29.98,29.73,10,5,1,32,19,40,0.00,8,Snow,307
2012-12-31,32,26,21,27,19,14,93,73,61,30.19,30.02,29.84,10,9,2,15,9,,0.00,5,Snow,233